EW7937 Weather Reports


Display with metric or nautical units.
time (UTC)temp
F
wind
direction
speed
MPH
gust
MPH
rain 1hr
in
rain 24hr
in
rain mn
in
humidity
%
barometer
mb
20260903044656 74 310 0.0 0.0 0.00 0.00 0.00 45 1014.7
20260903043912 74 310 0.0 0.0 0.00 0.00 0.00 45 1014.6
20260903043413 74 310 0.0 0.0 0.00 0.00 0.00 44 1014.6
20260903043139 74 310 0.0 0.0 0.00 0.00 0.00 44 1014.5
20260903042926 74 310 0.0 0.0 0.00 0.00 0.00 44 1014.5
20260903042403 75 310 0.0 0.0 0.00 0.00 0.00 44 1014.6
20260903041902 75 310 0.0 0.0 0.00 0.00 0.00 44 1014.5
20260903041403 75 310 0.0 0.0 0.00 0.00 0.00 44 1014.5
20260903040914 75 310 0.0 0.0 0.00 0.00 0.00 44 1014.3
20260903040905 75 310 0.0 0.0 0.00 0.00 0.00 44 1014.4
20260903040435 75 310 0.0 0.0 0.00 0.00 0.00 44 1014.3
20260903035853 76 310 0.0 0.0 0.00 0.00 0.00 44 1014.3
20260903035640 76 310 0.0 0.0 0.00 0.00 0.00 44 1014.4
20260903034851 76 310 0.0 0.0 0.00 0.00 0.00 44 1014.2
20260903034347 76 310 0.0 5.0 0.00 0.00 0.00 43 1014.2
20260903033850 76 310 0.0 5.0 0.00 0.00 0.00 43 1014.1
20260903033344 76 310 0.0 5.0 0.00 0.00 0.00 43 1014.2
20260903033108 77 326 0.0 0.0 0.00 0.00 0.00 43 1014.1
20260903032952 77 326 0.0 0.0 0.00 0.00 0.00 43 1014.1
20260903032342 77 326 0.0 0.0 0.00 0.00 0.00 43 1014.1
20260903031835 77 326 0.0 0.0 0.00 0.00 0.00 43 1014.1
20260903031621 77 326 0.0 0.0 0.00 0.00 0.00 42 1014.0
20260903030832 78 326 0.0 0.0 0.00 0.00 0.00 41 1014.0
20260903030332 78 326 0.0 0.0 0.00 0.00 0.00 41 1013.9
20260903025834 78 326 0.0 0.0 0.00 0.00 0.00 40 1013.9
20260903025333 78 326 0.0 0.0 0.00 0.00 0.00 39 1013.9
20260903024830 79 326 0.0 0.0 0.00 0.00 0.00 39 1013.9
20260903024323 79 326 0.0 0.0 0.00 0.00 0.00 38 1013.8
20260903023821 79 326 0.0 0.0 0.00 0.00 0.00 37 1013.8
20260903023314 80 326 0.0 0.0 0.00 0.00 0.00 37 1013.8
20260903022814 80 326 0.0 0.0 0.00 0.00 0.00 37 1013.7
20260903022314 80 326 0.0 0.0 0.00 0.00 0.00 36 1013.8
20260903021846 81 326 0.0 0.0 0.00 0.00 0.00 35 1013.8
20260903021829 80 326 0.0 0.0 0.00 0.00 0.00 35 1013.8
20260903021030 81 326 0.0 0.0 0.00 0.00 0.00 34 1013.9
20260903020859 81 326 0.0 0.0 0.00 0.00 0.00 34 1013.8
20260903020841 81 326 0.0 0.0 0.00 0.00 0.00 34 1013.9
20260903020606 81 326 0.0 0.0 0.00 0.00 0.00 34 1013.8
20260903020100 82 326 0.0 0.0 0.00 0.00 0.00 34 1013.9
20260903015552 82 326 0.0 0.0 0.00 0.00 0.00 34 1013.9
20260903014804 82 326 0.0 0.0 0.00 0.00 0.00 33 1013.9
20260903014304 83 326 0.0 0.0 0.00 0.00 0.00 33 1013.9
20260903013805 83 326 0.0 0.0 0.00 0.00 0.00 32 1013.9
20260903013553 83 326 0.0 0.0 0.00 0.00 0.00 31 1013.9
20260903012805 84 326 0.0 0.0 0.00 0.00 0.00 31 1013.9
20260903012538 84 326 0.0 3.0 0.00 0.00 0.00 31 1013.9
20260903011847 84 220 0.0 0.0 0.00 0.00 0.00 30 1013.9
20260903011830 84 326 0.0 3.0 0.00 0.00 0.00 30 1014.0
20260903010802 84 220 0.0 0.0 0.00 0.00 0.00 29 1014.0
20260903010557 84 220 0.0 1.0 0.00 0.00 0.00 29 1014.0
20260903005805 84 220 0.0 4.0 0.00 0.00 0.00 29 1014.1
20260903005306 84 281 0.0 4.0 0.00 0.00 0.00 29 1014.1
20260903004803 84 228 0.0 3.0 0.00 0.00 0.00 29 1014.1
20260903004302 84 283 0.0 6.0 0.00 0.00 0.00 30 1014.1
20260903003803 85 283 0.0 6.0 0.00 0.00 0.00 29 1014.1
20260903003558 85 250 0.0 0.0 0.00 0.00 0.00 30 1014.2
20260903002803 85 250 0.0 0.0 0.00 0.00 0.00 30 1014.2
20260903002306 85 250 0.0 0.0 0.00 0.00 0.00 30 1014.2
20260903001803 85 250 0.0 8.0 0.00 0.00 0.00 31 1014.3
20260903001302 85 250 0.0 8.0 0.00 0.00 0.00 29 1014.3
20260903000755 85 268 0.0 1.0 0.00 0.00 0.00 30 1014.3
20260903000252 85 268 0.0 1.0 0.00 0.00 0.00 31 1014.3
20260902235749 85 229 0.0 0.0 0.00 0.00 0.00 31 1014.4
20260902235241 85 229 0.0 0.0 0.00 0.00 0.00 29 1014.5
20260902235033 85 229 0.0 0.0 0.00 0.00 0.00 30 1014.4
20260902234235 86 229 0.0 0.0 0.00 0.00 0.00 30 1014.5
20260902233736 86 229 0.0 0.0 0.00 0.00 0.00 31 1014.5
20260902233235 86 229 0.0 0.0 0.00 0.00 0.00 30 1014.6
20260902232732 86 229 0.0 0.0 0.00 0.00 0.00 31 1014.6
20260902232233 86 229 0.0 0.0 0.00 0.00 0.00 31 1014.7
20260902231733 87 229 0.0 1.0 0.00 0.00 0.00 30 1014.7
20260902231234 87 229 0.0 10.0 0.00 0.00 0.00 31 1014.8
20260902230952 86 238 1.0 10.0 0.00 0.00 0.00 31 1014.9
20260902230449 86 269 0.0 0.0 0.00 0.00 0.00 30 1014.8
20260902230244 86 269 0.0 0.0 0.00 0.00 0.00 30 1014.8
20260902225733 87 269 0.0 0.0 0.00 0.00 0.00 30 1014.9
20260902225233 87 269 0.0 1.0 0.00 0.00 0.00 30 1015.0
20260902225020 87 269 0.0 1.0 0.00 0.00 0.00 31 1015.0
20260902224525 87 290 0.0 0.0 0.00 0.00 0.00 32 1015.1
20260902223730 87 290 0.0 0.0 0.00 0.00 0.00 32 1015.1
20260902223231 87 222 0.0 5.0 0.00 0.00 0.00 30 1015.2
20260902222730 87 222 0.0 8.0 0.00 0.00 0.00 31 1015.3
20260902222227 87 238 1.0 8.0 0.00 0.00 0.00 31 1015.2
20260902221953 87 263 0.0 0.0 0.00 0.00 0.00 32 1015.3
20260902221744 87 263 0.0 0.0 0.00 0.00 0.00 32 1015.3
20260902221225 87 263 0.0 0.0 0.00 0.00 0.00 33 1015.4
20260902221012 87 263 0.0 0.0 0.00 0.00 0.00 32 1015.4
20260902220222 87 263 0.0 0.0 0.00 0.00 0.00 32 1015.5
20260902215722 87 263 0.0 4.0 0.00 0.00 0.00 33 1015.7
20260902215219 87 263 0.0 4.0 0.00 0.00 0.00 32 1015.8
20260902214716 87 236 0.0 2.0 0.00 0.00 0.00 33 1015.8
20260902214215 87 244 0.0 0.0 0.00 0.00 0.00 33 1015.9
20260902214005 87 244 0.0 1.0 0.00 0.00 0.00 32 1016.0
20260902213457 87 244 0.0 12.0 0.00 0.00 0.00 32 1016.0
20260902212712 86 233 1.0 12.0 0.00 0.00 0.00 33 1016.1
20260902212502 86 277 0.0 0.0 0.00 0.00 0.00 34 1016.2
20260902211710 86 277 0.0 0.0 0.00 0.00 0.00 36 1016.3
20260902211210 85 277 0.0 0.0 0.00 0.00 0.00 36 1016.2
20260902210959 85 277 0.0 0.0 0.00 0.00 0.00 34 1016.3
20260902210207 85 277 0.0 0.0 0.00 0.00 0.00 35 1016.3
20260902205703 85 277 0.0 0.0 0.00 0.00 0.00 34 1016.5
20260902205450 85 277 0.0 0.0 0.00 0.00 0.00 34 1016.4
20260902204703 85 277 0.0 0.0 0.00 0.00 0.00 35 1016.5
20260902204204 85 277 0.0 0.0 0.00 0.00 0.00 37 1016.5
20260902203702 84 277 0.0 0.0 0.00 0.00 0.00 36 1016.6
20260902203202 84 277 0.0 0.0 0.00 0.00 0.00 37 1016.6
20260902202703 84 277 0.0 0.0 0.00 0.00 0.00 38 1016.6
20260902202452 83 277 0.0 0.0 0.00 0.00 0.00 37 1016.7
20260902201703 83 277 0.0 0.0 0.00 0.00 0.00 36 1016.7
20260902201203 83 277 0.0 1.0 0.00 0.00 0.00 37 1016.8
20260902200704 83 277 0.0 1.0 0.00 0.00 0.00 39 1016.8
20260902200205 83 277 0.0 1.0 0.00 0.00 0.00 38 1016.9
20260902195704 83 277 0.0 3.0 0.00 0.00 0.00 37 1017.0
20260902195203 83 277 0.0 3.0 0.00 0.00 0.00 37 1017.1
20260902194949 82 174 0.0 0.0 0.00 0.00 0.00 39 1017.1
20260902194451 82 174 0.0 0.0 0.00 0.00 0.00 39 1017.3
20260902193702 82 174 0.0 0.0 0.00 0.00 0.00 41 1017.3
20260902193202 81 174 0.0 0.0 0.00 0.00 0.00 42 1017.3
20260902192706 81 174 0.0 0.0 0.00 0.00 0.00 41 1017.3
20260902192204 81 174 0.0 0.0 0.00 0.00 0.00 41 1017.4
20260902191703 81 174 0.0 0.0 0.00 0.00 0.00 41 1017.4
20260902191205 81 174 0.0 0.0 0.00 0.00 0.00 40 1017.4
20260902190741 80 174 0.0 0.0 0.00 0.00 0.00 42 1017.5
20260902190726 81 174 0.0 0.0 0.00 0.00 0.00 41 1017.4
20260902185704 80 174 0.0 0.0 0.00 0.00 0.00 42 1017.5
20260902185203 79 174 0.0 0.0 0.00 0.00 0.00 43 1017.7
20260902184705 79 174 0.0 1.0 0.00 0.00 0.00 43 1017.7
20260902184203 79 174 0.0 1.0 0.00 0.00 0.00 44 1017.8
20260902183735 78 146 0.0 0.0 0.00 0.00 0.00 45 1017.9
20260902183218 78 146 0.0 0.0 0.00 0.00 0.00 45 1017.9
20260902183211 78 146 0.0 0.0 0.00 0.00 0.00 44 1017.8
20260902182720 78 146 0.0 0.0 0.00 0.00 0.00 45 1017.9
20260902182202 78 146 0.0 0.0 0.00 0.00 0.00 44 1018.1
20260902181948 77 146 0.0 0.0 0.00 0.00 0.00 46 1018.1
20260902181450 77 146 0.0 0.0 0.00 0.00 0.00 47 1018.1
20260902181028 77 146 0.0 0.0 0.00 0.00 0.00 47 1018.2
20260902181021 77 146 0.0 0.0 0.00 0.00 0.00 45 1018.1
20260902175704 76 146 0.0 0.0 0.00 0.00 0.00 46 1018.3
20260902175202 76 146 0.0 0.0 0.00 0.00 0.00 48 1018.4
20260902174704 76 146 0.0 0.0 0.00 0.00 0.00 48 1018.3
20260902174457 75 146 0.0 0.0 0.00 0.00 0.00 47 1018.3
20260902173704 75 146 0.0 0.0 0.00 0.00 0.00 50 1018.3
20260902173447 75 146 0.0 0.0 0.00 0.00 0.00 49 1018.3
20260902172702 74 146 0.0 0.0 0.00 0.00 0.00 50 1018.3
20260902172203 74 146 0.0 0.0 0.00 0.00 0.00 52 1018.3
20260902171949 74 146 0.0 0.0 0.00 0.00 0.00 51 1018.3
20260902171450 74 146 0.0 0.0 0.00 0.00 0.00 50 1018.3
20260902171157 73 146 0.0 1.0 0.00 0.00 0.00 51 1018.3
20260902170203 73 146 0.0 1.0 0.00 0.00 0.00 53 1018.3
20260902165702 73 150 0.0 0.0 0.00 0.00 0.00 55 1018.3
20260902165212 72 150 0.0 0.0 0.00 0.00 0.00 53 1018.2
20260902164705 72 150 0.0 0.0 0.00 0.00 0.00 54 1018.3
20260902164203 71 150 0.0 0.0 0.00 0.00 0.00 55 1018.3
20260902163704 71 150 0.0 1.0 0.00 0.00 0.00 56 1018.4
20260902163208 71 150 0.0 1.0 0.00 0.00 0.00 55 1018.3
20260902162705 70 274 0.0 0.0 0.00 0.00 0.00 56 1018.3
20260902162204 70 274 0.0 0.0 0.00 0.00 0.00 57 1018.4
20260902161703 69 274 0.0 0.0 0.00 0.00 0.00 57 1018.4
20260902161204 69 274 0.0 0.0 0.00 0.00 0.00 59 1018.5
20260902160703 68 274 0.0 0.0 0.00 0.00 0.00 59 1018.5
20260902160202 68 274 0.0 0.0 0.00 0.00 0.00 59 1018.6
20260902155706 67 274 0.0 0.0 0.00 0.00 0.00 60 1018.6
20260902155202 67 274 0.0 0.0 0.00 0.00 0.00 61 1018.6
20260902154950 66 274 0.0 0.0 0.00 0.00 0.00 63 1018.5
20260902154202 65 274 0.0 0.0 0.00 0.00 0.00 63 1018.5
20260902153705 65 274 0.0 0.0 0.00 0.00 0.00 66 1018.4
20260902153451 64 274 0.0 0.0 0.00 0.00 0.00 65 1018.4
20260902152701 63 274 0.0 0.0 0.00 0.00 0.00 68 1018.4
20260902152203 62 274 0.0 0.0 0.00 0.00 0.00 70 1018.3
20260902151704 61 274 0.0 0.0 0.00 0.00 0.00 71 1018.2
20260902151203 60 274 0.0 0.0 0.00 0.00 0.00 73 1018.1
20260902150704 60 274 0.0 0.0 0.00 0.00 0.00 74 1018.0
20260902150204 59 274 0.0 0.0 0.00 0.00 0.00 75 1017.9
20260902145704 59 274 0.0 0.0 0.00 0.00 0.00 76 1018.0
20260902145452 58 274 0.0 0.0 0.00 0.00 0.00 76 1017.9
20260902144703 58 274 0.0 0.0 0.00 0.00 0.00 77 1017.9
20260902144203 58 274 0.0 0.0 0.00 0.00 0.00 76 1017.8
20260902143704 58 274 0.0 0.0 0.00 0.00 0.00 77 1017.8
20260902143203 57 274 0.0 0.0 0.00 0.00 0.00 77 1017.7
20260902142947 57 274 0.0 0.0 0.00 0.00 0.00 77 1017.5
20260902142204 57 274 0.0 0.0 0.00 0.00 0.00 78 1017.4
20260902141923 57 274 0.0 0.0 0.00 0.00 0.00 78 1017.4
20260902141750 57 274 0.0 0.0 0.00 0.00 0.00 78 1017.4
20260902141205 57 274 0.0 0.0 0.00 0.00 0.00 78 1017.4
20260902140955 57 274 0.0 0.0 0.00 0.00 0.00 79 1017.3
20260902140204 57 274 0.0 0.0 0.00 0.00 0.00 79 1017.3
20260902135719 56 274 0.0 0.0 0.00 0.00 0.00 78 1017.1
20260902135707 56 274 0.0 0.0 0.00 0.00 0.00 79 1017.3
20260902135210 56 274 0.0 0.0 0.00 0.00 0.00 78 1017.1
20260902134720 56 274 0.0 0.0 0.00 0.00 0.00 78 1017.1
20260902134204 57 274 0.0 0.0 0.00 0.00 0.00 78 1017.0
20260902133703 57 274 0.0 0.0 0.00 0.00 0.00 78 1016.9
20260902133203 57 274 0.0 0.0 0.00 0.00 0.00 76 1016.8
20260902132704 57 274 0.0 0.0 0.00 0.00 0.00 76 1016.9
20260902132236 57 274 0.0 0.0 0.00 0.00 0.00 75 1016.7
20260902132221 57 274 0.0 0.0 0.00 0.00 0.00 75 1016.8
20260902131204 57 274 0.0 0.0 0.00 0.00 0.00 74 1016.6
20260902130705 58 274 0.0 0.0 0.00 0.00 0.00 74 1016.6
20260902130439 58 274 0.0 0.0 0.00 0.00 0.00 74 1016.6
20260902125705 58 274 0.0 0.0 0.00 0.00 0.00 73 1016.5
20260902125202 58 274 0.0 0.0 0.00 0.00 0.00 73 1016.5
20260902124702 58 274 0.0 0.0 0.00 0.00 0.00 72 1016.5
20260902124205 58 274 0.0 0.0 0.00 0.00 0.00 72 1016.4
20260902123703 59 274 0.0 0.0 0.00 0.00 0.00 72 1016.5
20260902123204 59 274 0.0 0.0 0.00 0.00 0.00 72 1016.4
20260902122702 59 274 0.0 0.0 0.00 0.00 0.00 72 1016.4
20260902122203 59 274 0.0 0.0 0.00 0.00 0.00 71 1016.3
20260902121702 59 274 0.0 0.0 0.00 0.00 0.00 71 1016.3
20260902121201 59 274 0.0 0.0 0.00 0.00 0.00 71 1016.2
20260902120702 60 274 0.0 0.0 0.00 0.00 0.00 71 1016.3
20260902120203 60 274 0.0 0.0 0.00 0.00 0.00 71 1016.4
20260902115703 60 274 0.0 0.0 0.00 0.00 0.00 71 1016.4
20260902115205 60 274 0.0 0.0 0.00 0.00 0.00 71 1016.4
20260902114701 60 274 0.0 11.0 0.00 0.00 0.00 70 1016.4
20260902114205 60 274 0.0 11.0 0.00 0.00 0.00 70 1016.5
20260902113702 60 303 0.0 0.0 0.00 0.00 0.00 70 1016.5
20260902113204 60 303 0.0 4.0 0.00 0.00 0.00 69 1016.4
20260902112705 60 303 0.0 4.0 0.00 0.00 0.00 69 1016.4
20260902112204 60 311 0.0 0.0 0.00 0.00 0.00 69 1016.4
20260902111705 60 311 0.0 0.0 0.00 0.00 0.00 69 1016.2
20260902111203 60 311 0.0 0.0 0.00 0.00 0.00 69 1016.2
20260902110744 60 311 0.0 0.0 0.00 0.00 0.00 68 1016.2
20260902110726 60 311 0.0 0.0 0.00 0.00 0.00 69 1016.1
20260902105701 61 311 0.0 0.0 0.00 0.00 0.00 68 1016.1
20260902105205 61 311 0.0 0.0 0.00 0.00 0.00 68 1016.1
20260902105029 61 311 0.0 0.0 0.00 0.00 0.00 67 1016.1
20260902104728 61 311 0.0 0.0 0.00 0.00 0.00 68 1016.1
20260902103704 61 311 0.0 0.0 0.00 0.00 0.00 67 1016.0
20260902103205 61 311 0.0 0.0 0.00 0.00 0.00 67 1015.9
20260902102952 61 311 0.0 0.0 0.00 0.00 0.00 67 1015.9
20260902102448 61 311 0.0 0.0 0.00 0.00 0.00 66 1015.9
20260902101948 61 311 0.0 0.0 0.00 0.00 0.00 66 1015.9
20260902101204 62 311 0.0 0.0 0.00 0.00 0.00 66 1015.8
20260902100704 62 311 0.0 0.0 0.00 0.00 0.00 66 1015.9
20260902100204 62 311 0.0 0.0 0.00 0.00 0.00 65 1015.8
20260902095705 62 311 0.0 3.0 0.00 0.00 0.00 65 1015.8
20260902095454 62 311 0.0 7.0 0.00 0.00 0.00 65 1015.9
20260902094705 62 298 2.0 7.0 0.00 0.00 0.00 65 1015.8
20260902094203 62 318 0.0 4.0 0.00 0.00 0.00 65 1015.9
20260902093704 62 296 0.0 3.0 0.00 0.00 0.00 65 1015.8
20260902093204 62 296 0.0 3.0 0.00 0.00 0.00 64 1015.8
20260902092946 62 293 0.0 2.0 0.00 0.00 0.00 64 1015.8
20260902092202 63 293 0.0 2.0 0.00 0.00 0.00 64 1015.8
20260902091705 63 325 0.0 1.0 0.00 0.00 0.00 63 1015.9
20260902091203 63 325 0.0 2.0 0.00 0.00 0.00 63 1016.0
20260902090701 63 324 0.0 8.0 0.00 0.00 0.00 63 1016.0
20260902090451 63 298 1.0 8.0 0.00 0.00 0.00 63 1016.1
20260902085703 63 298 2.0 9.0 0.00 0.00 0.00 63 1016.1
20260902085205 63 287 1.0 9.0 0.00 0.00 0.00 62 1016.0
20260902084703 63 296 0.0 11.0 0.00 0.00 0.00 62 1016.1
20260902084439 64 296 1.0 11.0 0.00 0.00 0.00 62 1016.1
20260902083655 64 294 1.0 11.0 0.00 0.00 0.00 62 1016.1
20260902083157 64 306 3.0 11.0 0.00 0.00 0.00 62 1016.1
20260902082656 64 303 1.0 10.0 0.00 0.00 0.00 61 1016.0
20260902082149 64 301 0.0 12.0 0.00 0.00 0.00 61 1016.1
20260902081650 64 289 4.0 12.0 0.00 0.00 0.00 60 1016.1
20260902081148 64 325 0.0 13.0 0.00 0.00 0.00 60 1016.1
20260902080648 64 309 0.0 13.0 0.00 0.00 0.00 60 1016.0
20260902080142 64 306 0.0 14.0 0.00 0.00 0.00 60 1015.9
20260902075644 65 302 2.0 15.0 0.00 0.00 0.00 60 1015.8
20260902075142 65 299 5.0 15.0 0.00 0.00 0.00 59 1015.7
20260902074638 65 302 2.0 14.0 0.00 0.00 0.00 59 1015.8
20260902074427 65 298 2.0 13.0 0.00 0.00 0.00 59 1015.8
20260902073728 65 292 7.0 14.0 0.00 0.00 0.00 58 1015.8
20260902073705 65 285 6.0 14.0 0.00 0.00 0.00 59 1015.7
20260902072630 65 307 5.0 14.0 0.00 0.00 0.00 58 1015.8
20260902072131 65 286 6.0 15.0 0.00 0.00 0.00 58 1015.7
20260902071632 65 329 9.0 15.0 0.00 0.00 0.00 58 1015.6
20260902071134 65 298 5.0 15.0 0.00 0.00 0.00 58 1015.6
20260902070634 66 277 7.0 14.0 0.00 0.00 0.00 57 1015.5
20260902070131 66 286 5.0 14.0 0.00 0.00 0.00 57 1015.5
20260902065632 66 296 1.0 17.0 0.00 0.00 0.00 57 1015.6
20260902065419 66 284 9.0 17.0 0.00 0.00 0.00 57 1015.4
20260902064632 66 298 5.0 16.0 0.00 0.00 0.00 57 1015.4
20260902064132 66 302 2.0 15.0 0.00 0.00 0.00 57 1015.4
20260902063636 67 298 3.0 13.0 0.00 0.00 0.00 56 1015.4
20260902063131 67 292 2.0 13.0 0.00 0.00 0.00 56 1015.5
20260902062633 67 289 0.0 11.0 0.00 0.00 0.00 56 1015.4
20260902062130 67 306 2.0 14.0 0.00 0.00 0.00 56 1015.3
20260902061633 67 303 3.0 14.0 0.00 0.00 0.00 56 1015.3
20260902061133 67 302 1.0 16.0 0.00 0.00 0.00 56 1015.3
20260902060628 67 327 4.0 16.0 0.00 0.00 0.00 55 1015.3
20260902060417 68 287 3.0 12.0 0.00 0.00 0.00 55 1015.2
20260902055626 68 292 4.0 12.0 0.00 0.00 0.00 54 1015.3
20260902055123 68 312 5.0 12.0 0.00 0.00 0.00 54 1015.2
20260902054620 68 284 2.0 11.0 0.00 0.00 0.00 53 1015.2
20260902054118 69 311 5.0 11.0 0.00 0.00 0.00 52 1015.2
20260902053619 69 261 0.0 7.0 0.00 0.00 0.00 51 1015.3
20260902053116 69 289 0.0 7.0 0.00 0.00 0.00 51 1015.2
20260902052615 69 292 0.0 1.0 0.00 0.00 0.00 50 1015.2
20260902052113 70 283 0.0 4.0 0.00 0.00 0.00 49 1015.2
20260902051611 70 283 0.0 7.0 0.00 0.00 0.00 49 1015.2
20260902051106 70 303 1.0 12.0 0.00 0.00 0.00 48 1015.1
20260902050605 71 304 4.0 12.0 0.00 0.00 0.00 48 1015.1
20260902050104 71 264 2.0 14.0 0.00 0.00 0.00 47 1015.1
20260902045603 71 295 5.0 14.0 0.00 0.00 0.00 47 1015.0
20260902045105 72 260 2.0 11.0 0.00 0.00 0.00 46 1015.0
20260902044848 72 301 0.0 13.0 0.00 0.00 0.00 45 1014.9